Torna al catalogo

COSMOS 2084

AttivoMilitareVLEO
NORAD 20663·PAYLOAD·🇷🇺 Russia

Lanciato Jun 21, 1990 da Plesetsk Cosmodrome

Loading…

Prossimi Passaggi (prossime 24 ore)

TLE

AggiornatoSource: Space-Track

Epoca: Sep 14, 2026, 03:40 UTC

1 20663U 90055A   26257.15277966  .00001635  00000-0  12389-3 0  9992
2 20663  62.7887  52.3604 0016953 348.2530  11.8173 15.06423539964701

Traccia COSMOS 2084 in tempo reale con AllMySat

Download on the App Store